Regional Weather Roundup
Issued by NWS Spokane, WA

Home | Current Version | Previous Version | Text Only | Print | Product List | Glossary On
Versions: 1 2 3 4 5 6 7 8 9 10 11 12 13 14 15 16 17 18 19 20 21 22 23 24 25 26 27 28 29 30 31 32 33 34 35 36 37 38 39 40 41 42 43 44 45 46 47 48 49 50
000
NZUS01 KOTX 281210
RWROTX
EASTERN WASHINGTON/NORTHERN IDAHO ROUNDUP
NATIONAL WEATHER SERVICE, SPOKANE WA
500 AM PDT THU MAY 28 2015

Note: "fair" indicated few or no clouds below 12,000 feet with no
significant weather and/or obstructions to visibility.

...NORTHEAST WASHINGTON AND NORTHERN IDAHO PANHANDLE...

CITY           SKY/WX    TMP DP  RH WIND       PRES   REMARKS
SPOKANE INTL   PTCLDY    54  48  80 SE6       30.04R
SPOKANE DOWNTO MOCLDY    57  51  80 CALM      30.04S
COEUR D ALENE  MOCLDY    54  48  82 N5        30.04R
DEER PARK      CLEAR     48  46  93 CALM      30.05R
SANDPOINT      MOCLDY    54  52  94 CALM      30.05R
BONNERS FERRY  FAIR      54  50  87 E5        30.05R

...SOUTHEAST WASHINGTON AND SOUTHERN IDAHO PANHANDLE...

CITY           SKY/WX    TMP DP  RH WIND       PRES   REMARKS
WALLA WALLA    CLEAR     60  47  61 E9        30.01R
PULLMAN/MOSCOW CLEAR     51  47  86 NE6       30.08R
LEWISTON       CLEAR     52  49  89 SE3       30.06R
LOWELL           N/A     51  47  86 CALM      30.13R

...COLUMBIA BASIN...

CITY           SKY/WX    TMP DP  RH WIND       PRES   REMARKS
EPHRATA        CLEAR     57  52  83 N7        29.98R
MOSES LAKE     CLEAR     56  51  84 CALM      29.99R
TRI CITIES     CLEAR     55  50  83 E3        29.99R
HERMISTON      CLEAR     54  48  80 SE3       29.99S
PENDLETON      CLEAR     50  45  83 SE9       30.02R

...EAST SLOPES CASCADES...

CITY           SKY/WX    TMP DP  RH WIND       PRES   REMARKS
THE DALLES     CLEAR     62  54  74 W9        30.00R
YAKIMA         CLEAR     55  48  77 W7        30.01R
ELLENSBURG     CLEAR     52  47  83 NE3       30.02S
WENATCHEE      CLEAR     63  50  62 W6        30.00R
OMAK           CLEAR     54  47  77 NW8       30.00R

...SOUTHERN BRITISH COLUMBIA...

CITY           SKY/WX    TMP DP  RH WIND       PRES   REMARKS
PENTICTON      PTCLDY    50  45  81 CALM      30.02R

...WESTERN MONTANA...

CITY           SKY/WX    TMP DP  RH WIND       PRES   REMARKS
MISSOULA       CLOUDY    49  45  86 W3        30.09R

...NEIGHBORING CITIES...

CITY           SKY/WX    TMP DP  RH WIND       PRES   REMARKS
SEATTLE        CLEAR     55  51  86 CALM      30.06S
CALGARY        CLOUDY    54  46  76 N22       30.12R



USA.gov is the U.S. government's official web portal to all federal, state and local government web resources and services.